TimeCST,TemperatureF,Dew PointF,Humidity,Sea Level PressureIn,VisibilityMPH,Wind Direction,Wind SpeedMPH,Gust SpeedMPH,PrecipitationIn,Events,Conditions,WindDirDegrees,DateUTC
12:53 AM,34.0,27.0,75,30.44,10.0,Calm,Calm,-,N/A,,Clear,0,2012-11-17 06:53:00
1:53 AM,33.1,28.9,85,30.45,9.0,Calm,Calm,-,N/A,,Clear,0,2012-11-17 07:53:00
2:53 AM,30.9,27.0,85,30.44,7.0,Calm,Calm,-,N/A,,Clear,0,2012-11-17 08:53:00
3:53 AM,33.1,28.0,82,30.45,8.0,Calm,Calm,-,N/A,,Clear,0,2012-11-17 09:53:00
4:53 AM,28.9,24.1,82,30.45,7.0,Calm,Calm,-,N/A,,Clear,0,2012-11-17 10:53:00
5:53 AM,30.0,27.0,88,30.47,7.0,Calm,Calm,-,N/A,,Clear,0,2012-11-17 11:53:00
6:31 AM,30.2,26.6,86,30.46,2.5,Calm,Calm,-,N/A,,Clear,0,2012-11-17 12:31:00
6:39 AM,30.2,28.4,93,30.47,5.0,Calm,Calm,-,N/A,,Clear,0,2012-11-17 12:39:00
6:53 AM,30.0,27.0,88,30.48,4.0,Calm,Calm,-,N/A,,Clear,0,2012-11-17 12:53:00
7:53 AM,36.0,30.9,82,30.49,6.0,Calm,Calm,-,N/A,,Haze,0,2012-11-17 13:53:00
8:53 AM,43.0,33.1,68,30.50,10.0,ENE,6.9,-,N/A,,Clear,70,2012-11-17 14:53:00
9:53 AM,48.9,34.0,56,30.50,10.0,Calm,Calm,-,N/A,,Clear,0,2012-11-17 15:53:00
10:53 AM,53.1,34.0,48,30.49,10.0,Calm,Calm,-,N/A,,Clear,0,2012-11-17 16:53:00
11:53 AM,57.0,33.1,40,30.46,10.0,Calm,Calm,-,N/A,,Clear,0,2012-11-17 17:53:00
12:53 PM,60.1,33.1,36,30.43,10.0,Variable,4.6,-,N/A,,Clear,0,2012-11-17 18:53:00
1:53 PM,61.0,30.9,32,30.42,10.0,NE,3.5,-,N/A,,Clear,40,2012-11-17 19:53:00
2:53 PM,61.0,33.1,35,30.41,10.0,ENE,6.9,-,N/A,,Clear,70,2012-11-17 20:53:00
3:53 PM,59.0,35.1,41,30.40,10.0,Calm,Calm,-,N/A,,Clear,0,2012-11-17 21:53:00
4:53 PM,52.0,33.1,49,30.41,10.0,Calm,Calm,-,N/A,,Clear,0,2012-11-17 22:53:00
5:53 PM,46.9,33.1,59,30.41,10.0,Calm,Calm,-,N/A,,Clear,0,2012-11-17 23:53:00
6:53 PM,46.9,33.1,59,30.42,10.0,Calm,Calm,-,N/A,,Clear,0,2012-11-18 00:53:00
7:53 PM,45.0,33.1,63,30.42,10.0,Calm,Calm,-,N/A,,Clear,0,2012-11-18 01:53:00
8:53 PM,39.9,30.9,70,30.42,10.0,Calm,Calm,-,N/A,,Clear,0,2012-11-18 02:53:00
9:53 PM,37.0,32.0,82,30.42,10.0,Calm,Calm,-,N/A,,Clear,0,2012-11-18 03:53:00
10:53 PM,37.0,33.1,86,30.41,10.0,Calm,Calm,-,N/A,,Clear,0,2012-11-18 04:53:00
11:53 PM,34.0,28.9,82,30.41,10.0,Calm,Calm,-,N/A,,Clear,0,2012-11-18 05:53:00